Hourly Data Report for September 11, 2017

All times are specified in Local Standard Time (LST). Add 1 hour to adjust for Daylight Saving Time where and when it is observed.

BUCTOUCHE CDA CS
NEW BRUNSWICK

46°25'49.006" N
64°46'05.009" W
35.90 m
8100593
71666
ABT

Download Data

Hourly Data (September 2017)
Hourly Data Report for September 11, 2017
Temp Definition
°C
Dew Point Temp Definition
°C
Rel Hum Definition
%
Wind Dir Definition
10's deg

Wind Spd Definition
km/h
Visibility Definition
km
Stn Press Definition
kPa
Hmdx Definition


Wind Chill Definition


Weather Definition


TIME
00:00 13.0 8.5 74 27 10   101.39     LegendNANA
01:00 12.2 9.1 81 29 9   101.38     LegendNANA
02:00 11.5 10.0 90 29 9   101.40     LegendNANA
03:00 11.5 10.2 92 28 5   101.35     LegendNANA
04:00 11.4 10.4 94 25 8   101.29     LegendNANA
05:00 11.8 10.8 94 26 4   101.28     LegendNANA
06:00 11.8 10.9 95 24 6   101.30     LegendNANA
07:00 11.9 11.0 95 23 6   101.32     LegendNANA
08:00 12.4 10.8 90 28 10   101.29     LegendNANA
09:00 13.2 11.6 90 33 10   101.30     LegendNANA
10:00 14.4 12.4 88 35 13   101.34     LegendNANA
11:00 15.7 12.5 81 36 18   101.35     LegendNANA
12:00 16.6 11.6 72 35 24   101.30     LegendNANA
13:00 16.9 10.7 67 36 25   101.24     LegendNANA
14:00 17.2 10.2 63 36 25   101.21     LegendNANA
15:00 16.9 11.0 68 2 14   101.17     LegendNANA
16:00 17.1 10.8 66 36 14   101.10     LegendNANA
17:00 16.2 11.0 71 2 16   101.09     LegendNANA
18:00 14.9 10.8 76 1 15   101.08     LegendNANA
19:00 13.5 10.8 84 35 8   101.08     LegendNANA
20:00 12.3 10.5 89 2 8   101.07     LegendNANA
21:00 12.6 10.8 89 2 7   101.04     LegendNANA
22:00 11.4 10.5 94 1 4   101.02     LegendNANA
23:00 10.7 9.9 95 31 5   101.03     LegendNANA

Notes on Data Quality.

Legend

  • E = Estimated
  • M = Missing
  • NA = Not Available
  • ‡ = Partner data that is not subject to review by the National Climate Archives
Date modified: